Startseite
Über Mich
AHP4
Galerie
Sehschlangen
Tourenbuch
Bookmarks
Elektronik
Bewertung
Geschichten
[Tagesmessung] [Jahreswerte] [Information]

Messwerte vom 30.12.2021

Die letzten Messwerte von 23:58:47 Uhr:
KategorieMesswert
Temperatur [°C]12
Luftdruck [mBar]999
Sonneneinstrahlung0
Wind [km/h]2 aus Süd
Niederschlag [l/m²]0.2575
rel.Luftfeucht.96.6%
CO2 [ppm]721

Diagramme
Messwerte vom 30.12.2021
Tagesaggregation
KategorieMinimumMaximumSchnittSumme
Temperatur [°C]61210.2542
Luftdruck [mBar]991999995.4313
Sonneneinstrahlung20144.1833
Wind [km/h]21
rF [%]96.696.696.6
Niederschlag [l/m²]2.8325
CO2 [ppm]401741559.0
Einordnung alsVegetationstag

Messungen an benachbarten Tagen: Zur Jahresaggregation 2021
Tabelle aller Messwerte
UhrzeitTemperatur [°C]Luftdruck [mBar]SonneWind [km/h]RichtungRegen [l/m²]rF [%]CO2 [ppm]
00:01:44 6 991 0 2 S 0 96.6 454
00:04:46 6 991 0 1 SO 0 96.6 445
00:07:46 6 991 0 2 SO 0 96.6 448
00:10:45 6 991 0 0 SO 0 96.6 439
00:13:47 6 991 0 0 SO 0 96.6 439
00:16:48 6 991 0 2 SO 0 96.6 439
00:19:45 6 991 0 1 SO 0 96.6 450
00:22:43 6 991 0 3 0 96.6 451
00:25:46 6 991 0 1 O 0 96.6 448
00:28:50 6 991 0 0 SO 0 96.6 443
00:31:46 6 991 0 0 S 0 96.6 446
00:34:46 6 991 0 0 S 0 96.6 448
00:37:44 6 991 0 1 S 0.2575 96.6 445
00:40:46 6 991 0 0 SO 0 96.6 442
00:43:45 6 991 0 0 S 0 96.6 439
00:46:45 6 991 0 0 S 0 96.6 442
00:49:47 6 991 0 1 SO 0 96.6 446
00:52:44 6 991 0 0 O 0 96.6 444
00:55:46 6 991 0 0 SO 0 96.6 445
00:58:46 7 991 0 2 SO 0 96.6 450
01:01:46 7 991 0 1 SW 0 96.6 447
01:04:47 7 991 0 0 SO 0 96.6 448
01:07:45 7 991 0 2 W 0 96.6 442
01:10:47 7 991 0 2 0 96.6 443
01:13:44 7 991 0 1 0 96.6 444
01:16:45 7 991 0 0 NO 0 96.6 444
01:19:46 7 991 0 2 SW 0 96.6 445
01:22:45 7 991 0 0 O 0 96.6 442
01:25:45 7 991 0 1 SW 0 96.6 445
01:28:45 7 991 0 2 S 0 96.6 445
01:31:44 7 991 0 1 N 0 96.6 447
01:34:45 7 991 0 1 SW 0 96.6 450
01:37:45 7 991 0 2 W 0 96.6 450
01:40:46 8 991 0 2 SW 0 96.6 452
01:43:47 8 991 0 2 SO 0 96.6 447
01:46:45 8 991 0 2 N 0 96.6 448
01:49:46 8 991 0 1 S 0 96.6 451
01:52:44 8 992 0 2 S 0 96.6 457
01:55:45 8 991 0 4 SO 0 96.6 454
01:58:46 8 992 0 1 NO 0 96.6 445
02:01:44 8 992 0 1 W 0 96.6 444
02:04:46 8 992 0 2 SW 0 96.6 451
02:07:45 8 992 0 1 SO 0 96.6 457
02:10:47 8 991 0 1 SW 0 96.6 460
02:13:47 8 992 0 1 SO 0 96.6 463
02:16:47 8 992 0 2 SW 0 96.6 466
02:19:47 8 992 0 2 SO 0 96.6 465
02:22:48 8 991 0 0 NW 0 96.6 463
02:25:47 8 992 0 1 SW 0 96.6 466
02:28:50 8 992 0 1 NW 0 96.6 469
02:31:47 8 992 0 0 SW 0 96.6 469
02:34:47 8 992 0 2 SO 0 96.6 466
02:37:47 8 992 0 1 W 0 96.6 466
02:40:46 8 992 0 2 SW 0 96.6 456
02:43:50 8 992 0 1 NW 0 96.6 462
02:46:47 8 993 0 0 SO 0 96.6 457
02:49:48 8 992 0 5 SW 0 96.6 456
02:52:46 8 993 0 4 W 0 96.6 459
02:55:46 8 992 0 0 SW 0 96.6 458
02:58:46 8 992 0 2 W 0 96.6 451
03:01:48 8 992 0 1 W 0 96.6 445
03:04:47 8 992 0 4 W 0 96.6 448
03:07:48 8 992 0 4 W 0 96.6 454
03:10:47 9 993 0 3 W 0 96.6 454
03:13:45 9 993 0 8 W 0 96.6 450
03:16:46 9 993 0 2 S 0 96.6 448
03:19:48 9 993 0 5 W 0 96.6 445
03:22:46 9 993 0 5 W 0 96.6 456
03:25:48 9 993 0 3 SW 0 96.6 451
03:28:45 9 993 0 3 W 0 96.6 463
03:31:47 9 993 0 4 NW 0 96.6 454
03:34:48 9 993 0 5 SW 0 96.6 457
03:37:46 9 993 0 5 SW 0 96.6 453
03:40:47 9 993 0 5 SW 0 96.6 451
03:43:45 9 993 0 4 W 0 96.6 448
03:46:47 9 994 0 1 SW 0 96.6 459
03:49:46 9 993 0 6 W 0 96.6 465
03:52:45 9 994 0 1 W 0 96.6 466
03:55:46 9 994 0 3 SO 0 96.6 468
03:58:47 9 994 0 6 W 0 96.6 465
04:01:47 9 994 0 9 NW 0 96.6 465
04:04:48 9 993 0 2 NW 0 96.6 457
04:07:47 9 994 0 4 NW 0 96.6 454
04:10:47 9 994 0 3 SO 0 96.6 453
04:13:46 9 994 0 7 NW 0 96.6 448
04:16:48 9 994 0 1 SW 0 96.6 453
04:19:46 9 994 0 1 SO 0 96.6 453
04:22:45 9 994 0 4 SW 0 96.6 454
04:25:48 9 994 0 4 W 0 96.6 445
04:28:49 9 995 0 5 NW 0 96.6 442
04:31:47 9 995 0 7 NW 0 96.6 445
04:34:48 9 994 0 4 SW 0 96.6 448
04:37:46 9 994 0 5 W 0 96.6 451
04:40:46 9 995 0 1 W 0 96.6 462
04:43:48 9 995 0 5 NW 0 96.6 461
04:46:47 9 995 0 7 W 0 96.6 460
04:49:47 9 995 0 4 NW 0 96.6 457
04:52:48 9 995 0 5 SW 0 96.6 449
04:55:45 9 995 0 5 W 0 96.6 442
04:58:47 9 995 0 6 NW 0 96.6 444
05:01:47 9 995 0 4 SW 0 96.6 445
05:04:46 9 995 0 2 W 0 96.6 456
05:07:46 9 995 0 3 NW 0 96.6 463
05:10:47 9 995 0 0 NW 0 96.6 474
05:13:47 9 995 0 0 SO 0 96.6 471
05:16:48 9 995 0 0 NW 0 96.6 471
05:19:46 9 995 0 0 SW 0 96.6 466
05:22:45 8 995 0 0 N 0 96.6 471
05:25:47 8 995 0 1 W 0 96.6 468
05:28:46 8 995 0 1 SO 0 96.6 474
05:31:47 8 995 0 2 S 0 96.6 469
05:34:46 8 995 0 1 SW 0 96.6 462
05:37:46 8 995 0 2 S 0 96.6 465
05:40:45 8 995 0 1 S 0 96.6 471
05:43:47 8 995 0 2 SO 0 96.6 471
05:46:46 8 995 0 2 W 0 96.6 466
05:49:46 9 995 0 1 NW 0 96.6 468
05:52:47 9 995 0 2 S 0 96.6 466
05:55:45 9 995 0 1 W 0 96.6 473
05:58:47 9 995 0 1 SW 0 96.6 489
06:01:46 9 995 0 4 S 0 96.6 503
06:04:46 9 995 0 1 W 0 96.6 507
06:07:46 9 995 0 1 S 0 96.6 504
06:10:46 9 995 0 5 S 0 96.6 504
06:13:47 9 995 0 1 SW 0 96.6 501
06:16:46 9 995 0 3 S 0 96.6 512
06:19:47 9 994 0 2 SW 0 96.6 515
06:22:48 9 995 0 6 SW 0 96.6 504
06:25:47 9 995 0 0 W 0 96.6 504
06:28:47 9 995 0 1 SW 0 96.6 503
06:31:47 9 994 0 0 SO 0 96.6 506
06:34:49 9 995 0 0 SO 0 96.6 510
06:37:47 9 995 0 3 W 0 96.6 512
06:40:45 9 995 0 2 O 0 96.6 496
06:43:52 9 995 0 0 W 0 96.6 502
06:46:46 9 995 0 1 SO 0 96.6 498
06:49:47 9 995 0 2 SW 0 96.6 509
06:52:47 9 994 0 3 S 0 96.6 515
06:55:45 9 995 0 2 S 0 96.6 518
06:58:47 9 995 0 2 S 0 96.6 521
07:01:46 9 995 0 1 SW 0 96.6 518
07:04:45 9 995 0 3 O 0 96.6 510
07:07:46 9 995 0 3 S 0 96.6 500
07:10:47 8 995 0 1 S 0 96.6 495
07:13:44 8 995 0 0 S 0 96.6 495
07:16:48 8 995 0 0 SW 0 96.6 497
07:19:47 8 995 0 1 SW 0 96.6 498
07:22:45 8 995 0 0 SW 0 96.6 519
07:25:49 8 995 0 0 SW 0 96.6 529
07:28:47 8 995 0 2 NO 0 96.6 539
07:31:46 8 995 0 1 S 0 96.6 541
07:34:46 9 995 0 2 W 0 96.6 553
07:37:46 9 995 0 0 O 0 96.6 553
07:40:46 9 995 0 2 W 0 96.6 556
07:43:47 9 995 0 0 S 0 96.6 566
07:46:45 9 995 0 1 N 0 96.6 570
07:49:47 9 995 0 2 S 0 96.6 573
07:52:46 9 995 0 0 O 0 96.6 558
07:55:46 9 995 0 3 SO 0 96.6 565
07:58:48 9 995 0 0 SO 0 96.6 559
08:01:47 9 995 3 0 O 0 96.6 564
08:04:49 9 995 5 0 SO 0 96.6 573
08:07:49 9 995 8 0 SO 0 96.6 576
08:10:48 9 995 11 0 S 0 96.6 582
08:13:47 9 995 16 0 W 0 96.6 590
08:16:47 9 995 20 0 SO 0 96.6 589
08:19:46 9 995 25 0 S 0 96.6 582
08:22:48 9 995 37 0 SW 0 96.6 586
08:25:47 9 995 48 0 SW 0 96.6 588
08:28:49 9 995 52 0 S 0 96.6 588
08:31:46 9 995 42 1 SO 0 96.6 591
08:34:45 8 995 40 3 S 0 96.6 591
08:37:48 9 995 41 0 SO 0 96.6 592
08:40:47 9 995 46 0 SO 0 96.6 591
08:43:47 9 995 51 0 SO 0 96.6 582
08:46:46 9 995 55 0 O 0 96.6 576
08:49:46 9 996 52 0 W 0 96.6 579
08:52:49 9 995 52 1 SW 0 96.6 570
08:55:48 9 995 62 2 S 0 96.6 564
08:58:48 9 995 56 0 0 96.6 559
09:01:49 9 995 67 0 SO 0 96.6 568
09:04:47 9 995 71 1 SW 0 96.6 576
09:07:49 9 995 65 0 SO 0 96.6 571
09:10:46 9 995 81 1 S 0 96.6 574
09:13:47 9 995 80 2 SO 0 96.6 571
09:16:46 9 995 76 0 S 0 96.6 577
09:19:50 9 995 86 0 S 0 96.6 568
09:22:46 9 995 91 0 SO 0 96.6 563
09:25:48 9 995 92 0 S 0 96.6 562
09:28:47 9 995 88 0 NW 0 96.6 567
09:31:48 9 995 93 0 NW 0 96.6 574
09:34:47 9 995 123 1 S 0 96.6 577
09:37:49 9 995 105 0 SO 0 96.6 577
09:40:48 9 996 116 0 O 0 96.6 577
09:43:48 9 995 139 0 O 0 96.6 580
09:46:49 9 995 158 0 O 0 96.6 576
09:49:50 9 995 156 3 SO 0 96.6 582
09:52:47 9 996 134 0 S 0 96.6 577
09:55:46 9 995 130 1 S 0 96.6 577
09:58:49 9 995 112 1 O 0 96.6 568
10:01:46 9 995 125 2 S 0 96.6 574
10:04:47 10 995 139 4 S 0 96.6 577
10:07:48 10 995 146 1 SO 0 96.6 585
10:10:50 10 995 142 3 NO 0 96.6 583
10:13:48 10 995 135 3 S 0 96.6 591
10:16:49 10 995 125 5 SW 0 96.6 585
10:19:47 10 995 121 4 SW 0 96.6 591
10:22:49 10 995 117 2 W 0 96.6 590
10:25:47 10 995 117 3 W 0 96.6 595
10:28:47 10 995 115 3 SO 0 96.6 594
10:31:49 10 995 116 4 S 0 96.6 598
10:34:48 10 995 131 4 S 0 96.6 594
10:37:45 10 995 144 4 O 0 96.6 597
10:40:48 10 995 152 0 S 0 96.6 597
10:43:50 10 995 141 4 SO 0 96.6 602
10:46:48 10 995 135 1 S 0 96.6 612
10:49:48 10 996 135 1 SW 0 96.6 618
10:52:48 10 995 132 3 SW 0 96.6 614
10:55:48 10 995 139 8 S 0 96.6 619
10:58:47 10 995 139 5 NO 0 96.6 620
11:01:46 10 995 139 8 SO 0 96.6 615
11:04:48 10 995 157 4 SW 0 96.6 612
11:07:46 10 995 178 4 S 0 96.6 614
11:10:49 10 995 189 1 NW 0 96.6 629
11:13:48 11 995 187 2 S 0 96.6 632
11:16:47 11 995 173 6 S 0 96.6 633
11:19:47 11 995 172 2 SO 0 96.6 631
11:22:48 11 995 178 8 SO 0 96.6 633
11:25:47 11 995 183 6 O 0 96.6 641
11:28:45 11 995 178 3 S 0 96.6 641
11:31:48 11 995 186 0 NO 0 96.6 649
11:34:46 11 995 187 5 W 0 96.6 656
11:37:48 11 995 188 3 SO 0.2575 96.6 656
11:40:49 11 995 191 4 SW 0 96.6 659
11:43:48 11 995 184 2 S 0 96.6 655
11:46:46 11 995 175 2 O 0 96.6 653
11:49:49 11 995 185 5 S 0 96.6 653
11:52:50 11 995 180 0 SW 0 96.6 656
11:55:50 11 995 180 3 W 0 96.6 664
11:58:47 11 995 174 0 S 0 96.6 670
12:01:47 11 995 167 3 O 0 96.6 673
12:04:50 11 995 176 2 SO 0 96.6 672
12:07:48 11 995 165 2 S 0 96.6 666
12:10:48 11 995 166 2 SO 0 96.6 667
12:13:48 11 995 177 3 SW 0 96.6 676
12:16:48 11 995 184 3 SW 0 96.6 680
12:19:49 11 995 175 4 SW 0 96.6 677
12:22:49 11 995 167 1 SO 0 96.6 671
12:25:48 11 995 171 4 NW 0 96.6 673
12:28:49 11 995 181 3 S 0 96.6 680
12:31:50 11 995 195 1 SW 0 96.6 680
12:34:48 11 995 201 2 SW 0 96.6 677
12:37:50 11 995 196 4 SW 0 96.6 668
12:40:48 11 995 190 3 SO 0 96.6 671
12:43:49 11 995 185 1 SW 0 96.6 667
12:46:47 11 995 168 2 S 0 96.6 667
12:49:47 11 995 164 2 SO 0 96.6 667
12:52:47 11 995 156 7 SO 0 96.6 674
12:55:49 11 995 174 2 NW 0.2575 96.6 668
12:58:46 11 995 175 4 W 0 96.6 674
13:01:47 11 995 172 4 W 0 96.6 681
13:04:48 11 995 172 4 SW 0 96.6 687
13:07:46 11 995 167 3 W 0 96.6 691
13:10:47 11 995 157 7 SO 0 96.6 697
13:13:48 11 995 165 4 W 0 96.6 688
13:16:49 11 995 161 8 SO 0.2575 96.6 697
13:19:47 11 995 158 9 SO 0 96.6 698
13:22:49 11 995 156 4 SW 0 96.6 697
13:25:50 11 995 149 1 SW 0 96.6 697
13:28:48 11 995 156 2 SW 0 96.6 700
13:31:48 11 995 157 3 NW 0 96.6 703
13:34:50 11 995 143 6 SW 0 96.6 700
13:37:48 11 995 141 5 SW 0 96.6 696
13:40:48 11 995 155 3 NO 0 96.6 699
13:43:50 11 995 139 2 SO 0 96.6 704
13:46:50 11 995 143 6 O 0 96.6 707
13:49:48 11 995 142 3 SW 0 96.6 705
13:52:48 11 995 138 4 NO 0 96.6 706
13:55:49 11 995 146 8 SW 0 96.6 706
13:58:47 11 995 150 2 0 96.6 705
14:01:47 12 995 131 2 O 0 96.6 714
14:04:50 12 995 142 6 SW 0 96.6 715
14:07:49 12 995 134 8 SO 0.2575 96.6 723
14:10:47 12 995 124 1 S 0 96.6 723
14:13:47 12 995 136 2 N 0 96.6 718
14:16:46 12 995 148 1 S 0 96.6 713
14:19:47 12 995 144 4 NW 0 96.6 708
14:22:47 12 995 148 2 W 0 96.6 711
14:25:47 12 995 143 4 W 0.2575 96.6 723
14:28:47 12 995 147 4 SW 0 96.6 741
14:31:48 12 995 146 7 SW 0 96.6 734
14:34:47 12 995 131 7 W 0 96.6 729
14:37:47 12 995 140 9 S 0 96.6 732
14:40:46 12 995 143 7 W 0 96.6 737
14:43:47 12 995 149 6 SW 0 96.6 728
14:46:49 12 995 155 10 N 0 96.6 726
14:49:48 12 995 162 14 S 0 96.6 725
14:52:48 12 995 152 1 W 0 96.6 723
14:55:48 12 995 165 11 NW 0 96.6 723
14:58:47 12 995 159 8 SW 0 96.6 734
15:01:49 12 995 157 12 NW 0 96.6 731
15:04:50 12 996 161 12 SW 0 96.6 730
15:07:48 12 995 155 2 S 0 96.6 732
15:10:48 12 995 142 6 SW 0 96.6 724
15:13:47 12 996 140 9 SW 0 96.6 715
15:16:50 12 995 126 6 NW 0 96.6 720
15:19:47 12 995 130 8 S 0 96.6 702
15:22:49 12 995 129 10 SW 0 96.6 659
15:25:50 12 995 134 10 NW 0 96.6 653
15:28:48 12 996 123 2 NO 0 96.6 676
15:31:46 12 995 102 5 S 0 96.6 682
15:34:47 12 996 107 3 W 0 96.6 685
15:37:50 12 995 91 21 SW 0 96.6 688
15:40:49 12 996 96 9 SW 0 96.6 688
15:43:50 12 996 100 2 SW 0 96.6 686
15:46:48 12 996 107 8 SO 0 96.6 686
15:49:51 12 996 98 13 W 0 96.6 687
15:52:48 12 996 89 5 S 0 96.6 682
15:55:47 12 995 86 2 SW 0 96.6 678
15:58:48 12 996 77 6 NW 0 96.6 679
16:01:48 12 996 70 3 W 0 96.6 685
16:04:48 12 996 60 6 W 0 96.6 685
16:07:48 12 996 51 2 SO 0 96.6 691
16:10:47 12 996 49 4 W 0.2575 96.6 687
16:13:46 12 996 35 6 SW 0 96.6 688
16:16:49 12 996 26 4 W 0 96.6 688
16:19:47 12 996 19 9 SW 0 96.6 691
16:22:52 12 997 13 8 SW 0 96.6 691
16:25:46 12 996 11 0 W 0 96.6 685
16:28:48 12 997 8 6 S 0 96.6 688
16:31:48 12 997 8 4 NW 0 96.6 691
16:34:46 12 996 5 4 SO 0 96.6 690
16:37:49 12 997 3 4 W 0 96.6 688
16:40:49 12 996 0 2 NW 0 96.6 685
16:43:48 12 996 0 0 SO 0 96.6 696
16:46:49 12 997 0 8 NW 0 96.6 690
16:49:48 12 997 0 19 NO 0 96.6 682
16:52:45 12 997 0 7 S 0 96.6 676
16:55:47 12 997 0 5 S 0 96.6 679
16:58:47 12 997 0 2 SW 0 96.6 672
17:01:46 12 997 0 8 S 0 96.6 664
17:04:49 12 997 0 6 S 0 96.6 658
17:07:48 12 997 0 3 NW 0 96.6 651
17:10:46 12 997 0 8 S 0 96.6 648
17:13:45 12 997 0 8 0 96.6 649
17:16:48 12 997 0 3 NW 0 96.6 647
17:19:46 12 997 0 1 N 0 96.6 635
17:22:46 12 998 0 2 W 0 96.6 633
17:25:45 12 997 0 7 SW 0 96.6 635
17:28:47 12 997 0 2 S 0 96.6 633
17:31:47 12 997 0 2 S 0 96.6 629
17:34:47 12 998 0 2 SO 0 96.6 626
17:37:47 12 998 0 4 W 0 96.6 620
17:40:47 12 998 0 2 O 0 96.6 608
17:43:46 12 998 6 3 W 0 96.6 404
17:46:46 12 998 0 9 SW 0 96.6 406
17:49:48 12 997 0 5 SW 0 96.6 404
17:52:49 12 998 0 5 SW 0 96.6 407
17:55:44 12 997 0 13 W 0 96.6 404
17:58:46 12 998 0 1 W 0 96.6 406
18:01:48 12 998 0 5 W 0 96.6 404
18:04:45 12 998 0 0 W 0 96.6 405
18:07:50 12 998 0 2 SW 0 96.6 407
18:10:49 12 998 0 2 S 0 96.6 407
18:13:49 12 998 0 2 S 0 96.6 407
18:16:48 12 998 0 2 SO 0 96.6 406
18:19:49 12 998 0 2 SO 0 96.6 405
18:22:45 12 998 0 9 S 0 96.6 407
18:25:49 12 997 0 2 NW 0 96.6 407
18:28:48 12 998 0 3 S 0 96.6 404
18:31:46 12 998 0 7 S 0 96.6 407
18:34:46 12 998 0 5 S 0 96.6 404
18:37:46 12 998 0 6 S 0 96.6 407
18:40:46 12 998 0 2 S 0 96.6 404
18:43:46 12 998 0 1 S 0 96.6 407
18:46:48 12 998 0 4 SW 0 96.6 407
18:49:46 12 998 0 1 O 0 96.6 404
18:52:48 12 998 0 12 NO 0 96.6 406
18:55:47 12 998 0 7 W 0 96.6 403
18:58:45 12 998 0 1 SW 0 96.6 406
19:01:46 12 998 0 6 NO 0 96.6 404
19:04:45 12 998 0 2 SO 0 96.6 401
19:07:46 12 998 0 10 S 0 96.6 406
19:10:46 12 998 0 4 W 0 96.6 404
19:13:45 12 998 0 9 O 0 96.6 407
19:16:47 12 998 0 4 NW 0 96.6 409
19:19:49 12 998 0 5 SW 0 96.6 418
19:22:47 12 998 0 1 S 0 96.6 409
19:25:44 12 998 0 4 N 0 96.6 410
19:28:48 12 998 0 5 S 0 96.6 415
19:31:46 12 998 0 4 W 0 96.6 421
19:34:46 12 998 0 4 S 0 96.6 430
19:37:47 12 998 0 7 SO 0 96.6 430
19:40:47 12 998 0 8 S 0 96.6 430
19:43:46 12 998 0 5 SW 0 96.6 433
19:46:47 12 998 0 3 SO 0 96.6 442
19:49:45 12 998 0 2 W 0 96.6 450
19:52:45 12 999 0 2 N 0 96.6 459
19:55:48 12 998 0 5 SW 0 96.6 466
19:58:46 12 998 0 1 NW 0 96.6 468
20:01:47 12 998 0 3 N 0 96.6 466
20:04:45 12 998 0 3 N 0 96.6 463
20:07:49 12 998 0 2 SW 0 96.6 462
20:10:47 12 998 0 1 SO 0.2575 96.6 457
20:13:48 12 998 0 2 O 0 96.6 457
20:16:46 12 998 0 2 W 0 96.6 463
20:19:46 12 998 0 5 W 0 96.6 474
20:22:47 12 998 0 4 NO 0 96.6 483
20:25:47 12 998 0 3 SW 0 96.6 489
20:28:48 12 998 0 7 SW 0 96.6 489
20:31:47 12 998 0 2 N 0 96.6 478
20:34:48 12 998 0 2 0 96.6 475
20:37:48 12 998 0 11 S 0 96.6 483
20:40:47 12 998 0 4 W 0 96.6 505
20:43:47 12 998 0 2 W 0 96.6 514
20:46:48 12 998 0 5 W 0 96.6 512
20:49:48 12 998 0 1 SO 0 96.6 512
20:52:47 12 998 0 2 W 0 96.6 524
20:55:49 12 998 0 4 S 0 96.6 529
20:58:49 12 999 0 3 SW 0 96.6 533
21:01:48 12 998 0 2 SW 0 96.6 527
21:04:49 12 998 0 1 SW 0 96.6 519
21:07:49 12 998 0 5 SO 0 96.6 518
21:10:48 12 998 0 0 NW 0.2575 96.6 523
21:13:48 12 999 0 1 SO 0 96.6 526
21:16:47 12 998 0 6 W 0 96.6 538
21:19:48 12 998 0 3 NW 0 96.6 548
21:22:48 12 998 0 2 SW 0 96.6 553
21:25:50 12 998 0 11 NW 0 96.6 548
21:28:49 12 998 0 3 SO 0 96.6 545
21:31:45 12 998 0 4 W 0 96.6 551
21:34:47 12 998 0 3 S 0 96.6 559
21:37:48 12 999 0 1 SW 0 96.6 574
21:40:47 12 998 0 2 SO 0 96.6 571
21:43:46 12 998 0 4 SO 0 96.6 568
21:46:46 12 998 0 4 W 0 96.6 574
21:49:48 12 998 0 2 S 0 96.6 570
21:52:46 12 998 0 4 W 0 96.6 574
21:55:46 12 998 0 9 W 0 96.6 571
21:58:48 12 998 0 2 SW 0 96.6 582
22:01:46 12 999 0 0 O 0 96.6 583
22:04:49 12 999 0 11 SO 0 96.6 593
22:07:45 12 999 0 5 S 0 96.6 590
22:10:50 12 999 0 6 O 0 96.6 591
22:13:46 12 999 0 1 S 0 96.6 582
22:16:50 12 999 0 1 SO 0 96.6 585
22:19:48 12 999 0 5 SO 0 96.6 587
22:22:46 12 998 0 8 W 0.2575 96.6 594
22:25:48 12 999 0 5 S 0 96.6 662
22:28:48 12 998 0 6 SW 0 96.6 659
22:31:47 12 998 0 6 SW 0 96.6 659
22:34:47 12 999 0 2 W 0 96.6 655
22:37:46 12 998 0 5 SW 0 96.6 661
22:40:45 12 998 0 2 0 96.6 661
22:43:46 12 999 0 1 S 0 96.6 664
22:46:48 12 999 0 1 S 0 96.6 665
22:49:50 12 998 0 5 S 0 96.6 674
22:52:47 12 999 0 5 O 0 96.6 677
22:55:48 12 999 0 0 W 0 96.6 683
22:58:48 12 999 0 2 SW 0 96.6 682
23:01:50 12 999 0 3 SO 0 96.6 684
23:04:47 12 998 0 3 SO 0 96.6 682
23:07:50 12 999 0 4 S 0 96.6 688
23:10:47 12 999 0 4 W 0 96.6 688
23:13:45 12 998 0 3 S 0 96.6 691
23:16:48 12 999 0 7 SW 0 96.6 692
23:19:48 12 999 0 5 S 0 96.6 699
23:22:47 12 998 0 5 S 0 96.6 700
23:25:49 12 999 0 5 SO 0 96.6 695
23:28:49 12 998 0 4 S 0 96.6 697
23:31:49 12 998 0 4 NO 0 96.6 704
23:34:48 12 999 0 2 S 0 96.6 706
23:37:48 12 998 0 4 SW 0 96.6 710
23:40:45 12 999 0 4 S 0 96.6 711
23:43:46 12 998 0 1 O 0 96.6 710
23:46:45 12 999 0 2 S 0 96.6 714
23:49:48 12 998 0 13 SO 0 96.6 712
23:52:48 12 999 0 0 SO 0 96.6 715
23:55:48 12 998 0 2 W 0 96.6 714
23:58:47 12 999 0 2 S 0.2575 96.6 721

Letzte Änderung : 22-Jul-2022
Copyright Jens Köhler, Wolfsburg, Obere Dorfstraße 10d